When you browse on this site, cookies collect data to enhance your experience and personalize the content and advertising you see.
Visit our Privacy Policy to learn more. By continuing to use the site, you agree to this use of cookies and data.

Hourly Weather Akranes

Today, 28 September, Monday

Time Temperature Precipitation Wind Pressure Humidity
00:00 +4°C° 0 mm 4 mps 743 mmHg 92%
01:00 +5°C° 0 mm 4 mps 743 mmHg 92%
02:00 +5°C° 0 mm 4 mps 743 mmHg 92%
03:00 +5°C° 0 mm 3 mps 743 mmHg 92%
04:00 +4°C° 0 mm 3 mps 743 mmHg 92%
05:00 +5°C° 0 mm 2 mps 743 mmHg 93%
06:00 +5°C° 0 mm 2 mps 743 mmHg 93%
07:00 +6°C° 0 mm 1 mps 744 mmHg 92%
08:00 +6°C° 0 mm 1 mps 744 mmHg 92%
09:00 +7°C° 0.1 mm 1 mps 744 mmHg 88%
10:00 +8°C° 0.1 mm 1 mps 744 mmHg 84%
11:00 +7°C° 0 mm 2 mps 744 mmHg 77%
12:00 +7°C° 0.1 mm 2 mps 745 mmHg 76%
13:00 +7°C° 0.1 mm 3 mps 745 mmHg 75%
14:00 +7°C° 0.1 mm 3 mps 745 mmHg 74%
15:00 +7°C° 0.1 mm 3 mps 745 mmHg 79%
16:00 +5°C° 0.1 mm 3 mps 745 mmHg 84%
17:00 +4°C° 0.1 mm 3 mps 745 mmHg 89%
18:00 +4°C° 0.1 mm 3 mps 745 mmHg 90%
19:00 +3°C° 0.1 mm 3 mps 745 mmHg 91%
20:00 +4°C° 0.1 mm 2 mps 745 mmHg 92%
21:00 +2°C° 0.3 mm 3 mps 745 mmHg 92%
22:00 +2°C° 0.3 mm 3 mps 745 mmHg 92%
23:00 +1°C° 0.3 mm 4 mps 744 mmHg 92%

Tomorrow, 29 September, Tuesday

Time Temperature Precipitation Wind Pressure Humidity
00:00 +1°C° 0.5 mm 4 mps 744 mmHg 93%
01:00 +1°C° 0.5 mm 5 mps 744 mmHg 93%
02:00 +1°C° 0.5 mm 5 mps 743 mmHg 93%
03:00 +1°C° 0.5 mm 5 mps 743 mmHg 92%
04:00 +1°C° 0.5 mm 5 mps 743 mmHg 91%
05:00 +2°C° 0.5 mm 6 mps 742 mmHg 90%
06:00 +1°C° 0.3 mm 5 mps 742 mmHg 91%
07:00 +1°C° 0.3 mm 5 mps 742 mmHg 93%
08:00 +1°C° 0.3 mm 5 mps 742 mmHg 94%
09:00 +1°C° 0.6 mm 5 mps 742 mmHg 94%
10:00 +1°C° 0.6 mm 5 mps 742 mmHg 95%
11:00 +3°C° 0.6 mm 4 mps 741 mmHg 95%
12:00 +3°C° 0.3 mm 4 mps 741 mmHg 94%
13:00 +4°C° 0.3 mm 4 mps 741 mmHg 92%
14:00 +4°C° 0.3 mm 4 mps 741 mmHg 91%
15:00 +4°C° 0.5 mm 3 mps 741 mmHg 91%
16:00 +4°C° 0.5 mm 3 mps 741 mmHg 91%
17:00 +4°C° 0.5 mm 3 mps 741 mmHg 91%
18:00 +3°C° 0.1 mm 3 mps 741 mmHg 92%
19:00 +3°C° 0.1 mm 3 mps 741 mmHg 93%
20:00 +2°C° 0.1 mm 3 mps 741 mmHg 93%
21:00 +2°C° 0 mm 3 mps 740 mmHg 94%
22:00 +2°C° 0 mm 3 mps 740 mmHg 94%
23:00 +1°C° 0 mm 4 mps 739 mmHg 95%

Day after tomorrow, 30 September, Wednesday

Time Temperature Precipitation Wind Pressure Humidity
00:00 +1°C° 0.1 mm 4 mps 738 mmHg 95%
01:00 +1°C° 0.1 mm 5 mps 738 mmHg 95%
02:00 +1°C° 0.1 mm 5 mps 737 mmHg 96%
03:00 +1°C° 0.4 mm 6 mps 737 mmHg 96%
04:00 +1°C° 0.4 mm 6 mps 736 mmHg 96%
05:00 +1°C° 0.4 mm 6 mps 736 mmHg 96%
06:00 +1°C° 0.6 mm 5 mps 736 mmHg 96%
07:00 +1°C° 0.6 mm 4 mps 736 mmHg 96%
08:00 +2°C° 0.6 mm 3 mps 736 mmHg 96%
09:00 +1°C° 0.2 mm 5 mps 736 mmHg 95%
10:00 +1°C° 0.2 mm 6 mps 737 mmHg 94%
11:00 +2°C° 0.2 mm 7 mps 737 mmHg 92%
12:00 +1°C° 0.1 mm 8 mps 738 mmHg 91%
13:00 +1°C° 0.1 mm 9 mps 738 mmHg 89%
14:00 0°C° 0.1 mm 9 mps 739 mmHg 87%
15:00 0°C° 0.2 mm 8 mps 739 mmHg 87%
16:00 0°C° 0.2 mm 8 mps 740 mmHg 86%
17:00 -1°C° 0.2 mm 7 mps 741 mmHg 86%
18:00 -1°C° 0.3 mm 7 mps 741 mmHg 88%
19:00 -1°C° 0.3 mm 7 mps 742 mmHg 90%
20:00 -1°C° 0.3 mm 8 mps 743 mmHg 92%
21:00 -1°C° 0.2 mm 8 mps 743 mmHg 90%
22:00 -1°C° 0.2 mm 8 mps 744 mmHg 88%
23:00 -1°C° 0.2 mm 8 mps 745 mmHg 87%

1 October, Thursday

Time Temperature Precipitation Wind Pressure Humidity
00:00 -1°C° 0.1 mm 8 mps 745 mmHg 88%
01:00 -1°C° 0.1 mm 8 mps 746 mmHg 89%
02:00 -1°C° 0.1 mm 7 mps 746 mmHg 90%
03:00 -2°C° 0.1 mm 7 mps 747 mmHg 90%
04:00 -2°C° 0.1 mm 7 mps 747 mmHg 91%
05:00 -3°C° 0.1 mm 6 mps 748 mmHg 91%
06:00 -2°C° 0 mm 6 mps 749 mmHg 88%
07:00 -1°C° 0 mm 5 mps 749 mmHg 86%
08:00 -1°C° 0 mm 5 mps 750 mmHg 83%
09:00 0°C° 0 mm 4 mps 750 mmHg 80%
10:00 +1°C° 0 mm 4 mps 751 mmHg 77%
11:00 +3°C° 0 mm 3 mps 751 mmHg 74%
12:00 +4°C° 0 mm 3 mps 751 mmHg 71%
13:00 +4°C° 0 mm 3 mps 752 mmHg 69%
14:00 +5°C° 0 mm 2 mps 752 mmHg 66%
15:00 +4°C° 0 mm 2 mps 752 mmHg 69%
16:00 +2°C° 0 mm 3 mps 752 mmHg 71%
17:00 +2°C° 0 mm 3 mps 752 mmHg 74%
18:00 +1°C° 0 mm 3 mps 752 mmHg 75%
19:00 0°C° 0 mm 3 mps 753 mmHg 77%
20:00 -1°C° 0 mm 2 mps 753 mmHg 79%
21:00 -1°C° 0 mm 2 mps 753 mmHg 79%
22:00 -1°C° 0 mm 2 mps 753 mmHg 80%
23:00 -1°C° 0 mm 2 mps 752 mmHg 80%

2 October, Friday

Time Temperature Precipitation Wind Pressure Humidity
00:00 -1°C° 0 mm 2 mps 752 mmHg 79%
01:00 +1°C° 0 mm 1 mps 752 mmHg 78%
02:00 +1°C° 0 mm 1 mps 752 mmHg 77%
03:00 +1°C° 0 mm 1 mps 752 mmHg 76%
04:00 -1°C° 0 mm 2 mps 751 mmHg 74%
05:00 -1°C° 0 mm 2 mps 751 mmHg 73%
06:00 0°C° 0 mm 3 mps 751 mmHg 72%
07:00 0°C° 0 mm 3 mps 750 mmHg 71%
08:00 +1°C° 0 mm 3 mps 750 mmHg 70%
09:00 +1°C° 0 mm 4 mps 750 mmHg 70%
10:00 +1°C° 0 mm 4 mps 750 mmHg 70%
11:00 +3°C° 0 mm 4 mps 749 mmHg 69%
12:00 +3°C° 0.1 mm 3 mps 749 mmHg 72%
13:00 +4°C° 0.1 mm 3 mps 748 mmHg 75%
14:00 +4°C° 0.1 mm 3 mps 748 mmHg 78%
15:00 +5°C° 0 mm 2 mps 747 mmHg 81%
16:00 +4°C° 0 mm 2 mps 747 mmHg 84%
17:00 +4°C° 0 mm 2 mps 747 mmHg 86%
18:00 +4°C° 0.1 mm 1 mps 746 mmHg 88%
19:00 +4°C° 0.1 mm 1 mps 746 mmHg 89%
20:00 +3°C° 0.1 mm 1 mps 746 mmHg 90%
21:00 +3°C° 0 mm 1 mps 745 mmHg 90%
22:00 +3°C° 0 mm 1 mps 745 mmHg 90%
23:00 +3°C° 0 mm 1 mps 744 mmHg 90%

3 October, Saturday

Time Temperature Precipitation Wind Pressure Humidity
00:00 +3°C° 0 mm 1 mps 744 mmHg 90%
01:00 +3°C° 0 mm 1 mps 744 mmHg 89%
02:00 +3°C° 0 mm 2 mps 744 mmHg 89%
03:00 +3°C° 0 mm 2 mps 743 mmHg 89%
04:00 +3°C° 0 mm 1 mps 743 mmHg 89%
05:00 +3°C° 0 mm 1 mps 743 mmHg 89%
06:00 +3°C° 0 mm 2 mps 743 mmHg 88%
07:00 +3°C° 0 mm 2 mps 743 mmHg 87%
08:00 +3°C° 0 mm 2 mps 743 mmHg 86%
09:00 +3°C° 0 mm 2 mps 743 mmHg 83%
10:00 +4°C° 0 mm 2 mps 743 mmHg 80%
11:00 +5°C° 0 mm 2 mps 743 mmHg 77%
12:00 +6°C° 0 mm 1 mps 743 mmHg 76%
13:00 +6°C° 0 mm 1 mps 743 mmHg 76%
14:00 +6°C° 0 mm 1 mps 743 mmHg 75%
15:00 +6°C° 0 mm 1 mps 743 mmHg 77%
16:00 +5°C° 0 mm 1 mps 743 mmHg 79%
17:00 +4°C° 0 mm 2 mps 743 mmHg 81%
18:00 +4°C° 0 mm 2 mps 743 mmHg 85%
19:00 +3°C° 0 mm 2 mps 744 mmHg 89%
20:00 +2°C° 0 mm 3 mps 744 mmHg 93%
21:00 +3°C° 0.1 mm 2 mps 744 mmHg 94%
22:00 +3°C° 0.1 mm 2 mps 744 mmHg 96%
23:00 +3°C° 0.1 mm 2 mps 744 mmHg 97%
Show more